Вернуться в каталог

MAANSHAN ZHISHUAN 1

АктивенНаукаSSO
NORAD 63988·PAYLOAD·🇨🇳 China
Это название спутника еще не подтверждено официальными источниками.

Запущен May 14, 2025 с Jiuquan Satellite Launch Center

Loading…

Ближайшие Пролёты (ближайшие 24 часа)

TLE

СвежийSource: Space-Track

Эпоха: Sep 14, 2026, 15:11 UTC

1 63988U 25100G   26257.63309377  .00003895  00000-0  14773-3 0  9992
2 63988  97.3630 331.4886 0012154 356.7072   3.4085 15.27392862 74411

Отслеживайте MAANSHAN ZHISHUAN 1 в реальном времени с AllMySat

Download on the App Store